Change the Weather History Date:

Monday, August 26, 2013

  Actual Average Record
Temperature  
Mean Temperature 81 °F -  
Max Temperature 89 °F 84 °F 99 °F (1973)
Min Temperature 73 °F 60 °F 46 °F (1985)
Cooling Degree Days 16    
Growing Degree Days 31 (Base 50)    
Moisture  
Dew Point 70 °F    
Average Humidity 68    
Maximum Humidity 83    
Minimum Humidity 55    
Precipitation  
Precipitation 0.00 in - - ()
Sea Level Pressure  
Sea Level Pressure 29.97 in    
Wind  
Wind Speed 11 mph (SSW)    
Max Wind Speed 18 mph    
Max Gust Speed 25 mph    
Visibility 10 miles    
Events      
Averages and records for this station are not official NWS values.
T = Trace of Precipitation, MM = Missing Value Source: NWS Daily Summary

Daily Weather History Graph

Daily Weather History Graph

Search for Another Location

Airport or City:

Trip Planner

Search our weather history database for the weather conditions in past years. The results will help you decide how hot, cold, wet, or windy it might be!

Date:

Astronomy

Aug. 26, 2013 Rise Set
Actual Time 6:43 AM CDT 8:08 PM CDT
Civil Twilight 6:13 AM CDT 8:38 PM CDT
Nautical Twilight 5:38 AM CDT 9:13 PM CDT
Astronomical Twilight 5:00 AM CDT 9:51 PM CDT
Moon 11:10 PM CDT (8/26) 12:55 PM CDT (8/26)
Length of Visible Light 14h 24m
Length of Day
13h 25m
Waning Gibbous, 66% of the Moon is Illuminated
Aug 26
Waning Gibbous
Aug 28
Last Quarter
Sep 5
New
Sep 12
First Quarter
Sep 19
Full

Hourly Weather History & Observations

Time (CDT) Temp. Heat Index Dew Point Humidity Pressure Visibility Wind Dir Wind Speed Gust Speed Precip Events Conditions
12:15 AM 78.8 °F - 71.6 °F 78% 30.03 in 10.0 mi SSW 12.7 mph - N/A   Unknown
12:35 AM 78.8 °F - 71.6 °F 78% 30.03 in 10.0 mi South 11.5 mph - N/A   Unknown
12:55 AM 78.8 °F - 69.8 °F 74% 30.03 in 10.0 mi South 9.2 mph - N/A   Unknown
1:15 AM 78.8 °F - 69.8 °F 74% 30.03 in 10.0 mi South 9.2 mph - N/A   Unknown
1:35 AM 78.8 °F - 69.8 °F 74% 30.03 in 10.0 mi SSW 12.7 mph - N/A   Unknown
1:55 AM 78.8 °F - 69.8 °F 74% 30.02 in 10.0 mi South 10.4 mph 16.1 mph N/A   Unknown
2:15 AM 77.0 °F - 69.8 °F 78% 30.02 in 10.0 mi SSW 11.5 mph 17.3 mph N/A   Unknown
2:35 AM 77.0 °F - 69.8 °F 78% 30.03 in 10.0 mi SSW 9.2 mph - N/A   Unknown
2:55 AM 75.2 °F - 69.8 °F 83% 30.02 in 10.0 mi SSW 9.2 mph - N/A   Unknown
3:15 AM 75.2 °F - 69.8 °F 83% 30.02 in 10.0 mi SSW 8.1 mph - N/A   Unknown
3:35 AM 75.2 °F - 68.0 °F 78% 30.02 in 10.0 mi SSW 10.4 mph - N/A   Unknown
3:55 AM 75.2 °F - 68.0 °F 78% 30.02 in 10.0 mi SSW 9.2 mph - N/A   Unknown
4:15 AM 75.2 °F - 68.0 °F 78% 30.03 in 10.0 mi South 8.1 mph - N/A   Unknown
4:35 AM 73.4 °F - 68.0 °F 83% 30.03 in 10.0 mi SSW 4.6 mph - N/A   Unknown
4:55 AM 73.4 °F - 66.2 °F 78% 30.03 in 10.0 mi SSW 4.6 mph - N/A   Unknown
5:15 AM 73.4 °F - 66.2 °F 78% 30.03 in 10.0 mi South 4.6 mph - N/A   Unknown
5:35 AM 73.4 °F - 66.2 °F 78% 30.03 in 10.0 mi South 3.5 mph - N/A   Unknown
5:55 AM 73.4 °F - 66.2 °F 78% 30.03 in 10.0 mi SSW 4.6 mph - N/A   Unknown
6:15 AM 73.4 °F - 66.2 °F 78% 30.03 in 10.0 mi South 4.6 mph - N/A   Unknown
6:35 AM 73.4 °F - 66.2 °F 78% 30.03 in 10.0 mi South 4.6 mph - N/A   Unknown
6:55 AM 73.4 °F - 66.2 °F 78% 30.03 in 10.0 mi South 5.8 mph - N/A   Unknown
7:15 AM 73.4 °F - 66.2 °F 78% 30.03 in 10.0 mi South 6.9 mph - N/A   Unknown
7:35 AM 73.4 °F - 66.2 °F 78% 30.03 in 10.0 mi SSW 4.6 mph - N/A   Unknown
7:55 AM 73.4 °F - 66.2 °F 78% 30.03 in 10.0 mi SSW 8.1 mph - N/A   Unknown
8:15 AM 75.2 °F - 66.2 °F 73% 30.03 in 10.0 mi SSW 9.2 mph - N/A   Unknown
8:35 AM 75.2 °F - 68.0 °F 78% 30.02 in 10.0 mi South 8.1 mph - N/A   Unknown
8:55 AM 77.0 °F - 68.0 °F 74% 30.01 in 10.0 mi SSW 9.2 mph - N/A   Unknown
9:15 AM 78.8 °F - 69.8 °F 74% 30.01 in 10.0 mi South 9.2 mph - N/A   Unknown
9:35 AM 78.8 °F - 68.0 °F 69% 30.01 in 10.0 mi SSW 10.4 mph 16.1 mph N/A   Unknown
9:55 AM 80.6 °F 83.2 °F 68.0 °F 65% 30.01 in 10.0 mi SSW 11.5 mph - N/A   Unknown
10:15 AM 80.6 °F 83.9 °F 69.8 °F 70% 30.01 in 10.0 mi SSW 12.7 mph - N/A   Unknown
10:35 AM 82.4 °F 86.3 °F 69.8 °F 66% 30.01 in 10.0 mi SSW 12.7 mph - N/A   Unknown
10:55 AM 82.4 °F 86.3 °F 69.8 °F 66% 30.01 in 10.0 mi SSW 11.5 mph - N/A   Unknown
11:15 AM 84.2 °F 88.4 °F 69.8 °F 62% 30.00 in 10.0 mi SSW 10.4 mph - N/A   Unknown
11:35 AM 84.2 °F 88.4 °F 69.8 °F 62% 30.00 in 10.0 mi SSW 9.2 mph - N/A   Unknown
11:55 AM 84.2 °F 88.4 °F 69.8 °F 62% 29.99 in 10.0 mi SSW 11.5 mph 16.1 mph N/A   Unknown
12:15 PM 86.0 °F 90.4 °F 69.8 °F 58% 29.99 in 10.0 mi SSW 13.8 mph 18.4 mph N/A   Unknown
12:35 PM 87.8 °F 93.8 °F 71.6 °F 58% 29.98 in 10.0 mi South 13.8 mph 18.4 mph N/A   Unknown
12:55 PM 87.8 °F 93.8 °F 71.6 °F 58% 29.98 in 10.0 mi South 15.0 mph 18.4 mph N/A   Unknown
1:15 PM 87.8 °F 93.8 °F 71.6 °F 58% 29.98 in 10.0 mi South 13.8 mph 17.3 mph N/A   Unknown
1:35 PM 87.8 °F 93.8 °F 71.6 °F 58% 29.97 in 10.0 mi South 13.8 mph 19.6 mph N/A   Unknown
1:55 PM 87.8 °F 93.8 °F 71.6 °F 58% 29.97 in 10.0 mi SSW 12.7 mph 20.7 mph N/A   Unknown
2:15 PM 87.8 °F 93.8 °F 71.6 °F 58% 29.96 in 10.0 mi South 15.0 mph 20.7 mph N/A   Unknown
2:35 PM 87.8 °F 93.8 °F 71.6 °F 58% 29.95 in 10.0 mi SSW 16.1 mph 20.7 mph N/A   Unknown
2:55 PM 89.6 °F 98.2 °F 73.4 °F 59% 29.95 in 10.0 mi SSW 17.3 mph 20.7 mph N/A   Unknown
3:15 PM 89.6 °F 96.2 °F 71.6 °F 55% 29.94 in 10.0 mi South 16.1 mph 23.0 mph N/A   Unknown
3:35 PM 89.6 °F 96.2 °F 71.6 °F 55% 29.94 in 10.0 mi South 17.3 mph 23.0 mph N/A   Unknown
3:55 PM 89.6 °F 96.2 °F 71.6 °F 55% 29.93 in 10.0 mi South 15.0 mph 21.9 mph N/A   Unknown
4:15 PM 89.6 °F 98.2 °F 73.4 °F 59% 29.93 in 10.0 mi South 13.8 mph 23.0 mph N/A   Unknown
4:35 PM 89.6 °F 98.2 °F 73.4 °F 59% 29.93 in 10.0 mi South 18.4 mph 23.0 mph N/A   Unknown
4:55 PM 89.6 °F 96.2 °F 71.6 °F 55% 29.92 in 10.0 mi South 16.1 mph 25.3 mph N/A   Unknown
5:15 PM 89.6 °F 96.2 °F 71.6 °F 55% 29.92 in 10.0 mi South 17.3 mph 21.9 mph N/A   Unknown
5:35 PM 89.6 °F 96.2 °F 71.6 °F 55% 29.92 in 10.0 mi South 18.4 mph 25.3 mph N/A   Unknown
5:55 PM 89.6 °F 96.2 °F 71.6 °F 55% 29.92 in 10.0 mi South 13.8 mph - N/A   Unknown
6:15 PM 89.6 °F 96.2 °F 71.6 °F 55% 29.92 in 10.0 mi South 13.8 mph 21.9 mph N/A   Unknown
6:35 PM 87.8 °F 93.8 °F 71.6 °F 58% 29.91 in 10.0 mi South 13.8 mph - N/A   Unknown
6:55 PM 87.8 °F 93.8 °F 71.6 °F 58% 29.91 in 10.0 mi South 13.8 mph 19.6 mph N/A   Unknown
7:15 PM 86.0 °F 91.8 °F 71.6 °F 62% 29.90 in 10.0 mi South 12.7 mph - N/A   Unknown
7:35 PM 84.2 °F 90.9 °F 73.4 °F 70% 29.90 in 10.0 mi South 9.2 mph - N/A   Unknown
7:55 PM 84.2 °F 89.6 °F 71.6 °F 66% 29.90 in 10.0 mi SSW 10.4 mph - N/A   Unknown
8:15 PM 82.4 °F 87.2 °F 71.6 °F 70% 29.89 in 10.0 mi SSW 8.1 mph - N/A   Unknown
8:35 PM 82.4 °F 87.2 °F 71.6 °F 70% 29.89 in 10.0 mi SSW 9.2 mph - N/A   Unknown
8:55 PM 82.4 °F 87.2 °F 71.6 °F 70% 29.89 in 10.0 mi SSW 10.4 mph - N/A   Unknown
9:15 PM 82.4 °F 86.3 °F 69.8 °F 66% 29.89 in 10.0 mi SSW 11.5 mph - N/A   Unknown
9:35 PM 80.6 °F 83.9 °F 69.8 °F 70% 29.89 in 10.0 mi SSW 11.5 mph - N/A   Unknown
9:55 PM 80.6 °F 83.9 °F 69.8 °F 70% 29.89 in 10.0 mi SSW 11.5 mph - N/A   Unknown
10:15 PM 80.6 °F 83.9 °F 69.8 °F 70% 29.89 in 10.0 mi South 10.4 mph - N/A   Unknown
10:35 PM 80.6 °F 83.9 °F 69.8 °F 70% 29.89 in 10.0 mi South 10.4 mph - N/A   Unknown
10:55 PM 80.6 °F 83.9 °F 69.8 °F 70% 29.89 in 10.0 mi South 10.4 mph - N/A   Unknown
11:15 PM 80.6 °F 83.9 °F 69.8 °F 70% 29.90 in 10.0 mi South 10.4 mph - N/A   Unknown
11:35 PM 78.8 °F - 68.0 °F 69% 29.89 in 10.0 mi South 11.5 mph - N/A   Unknown
11:55 PM 78.8 °F - 68.0 °F 69% 29.89 in 10.0 mi South 11.5 mph - N/A   Unknown